Date String (YYYY-MM-DD hh:mm:ss) UTC,Instrument flags,Ambient pressure (hPa),Sample flow (lpm),Bypass flow (lpm),Sample temperature (°C),Ambient temperature (°C),ASC tube jacket temperature (°C),LED temperature (°C),Box temperature (°C),Sample RH (%),Span deviation,Mass concentration (μg/m³),Mass concentration (μg/m³),Mass concentration (μg/m³)
DateTimeUTC,F1_M11,P_M11,Q1_M11,Q2_M11,T1_M11,T2_M11,T3_M11,T4_M11,T5_M11,U1_M11,ZSPAN_M11,X0_M11,X2_M11,X1_M11
2021-11-13 14:00:00,,0827.5,5.01,0.00,24.5,23.7,00.0,33.6,26.2,15.5,0000.0,0000.99,0000.47,0000.34
2021-11-13 14:01:00,,0827.5,5.00,0.00,24.5,23.7,00.0,33.6,26.2,15.6,0000.0,0000.98,0000.46,0000.34
2021-11-13 14:02:00,,0827.4,4.99,0.00,24.5,23.7,00.0,33.6,26.2,15.6,0000.0,0000.95,0000.45,0000.33
2021-11-13 14:03:00,,0827.4,5.01,0.00,24.5,23.7,00.0,33.6,26.2,15.4,0000.0,0000.86,0000.44,0000.33
2021-11-13 14:04:00,,0827.5,5.00,0.00,24.5,23.6,00.0,33.6,26.1,15.4,0000.0,0000.70,0000.43,0000.33
2021-11-13 14:05:00,,0827.5,5.00,0.00,24.5,23.6,00.0,33.6,26.2,15.5,0000.0,0000.72,0000.43,0000.34
2021-11-13 14:06:00,,0827.5,4.99,0.00,24.5,23.6,00.0,33.5,26.2,15.4,0000.0,0000.80,0000.44,0000.34
2021-11-13 14:07:00,,0827.4,5.00,0.00,24.5,23.6,00.0,33.5,26.2,15.3,0000.0,0000.74,0000.42,0000.34
2021-11-13 14:08:00,,0827.4,5.00,0.00,24.5,23.7,00.0,33.5,26.2,15.3,0000.0,0000.76,0000.43,0000.34
2021-11-13 14:09:00,,0827.4,5.00,0.00,24.5,23.7,00.0,33.5,26.2,15.3,0000.0,0000.77,0000.43,0000.34
2021-11-13 14:10:00,,0827.4,5.00,0.00,24.5,23.7,00.0,33.5,26.3,15.3,0000.0,0000.76,0000.42,0000.34
2021-11-13 14:11:00,,0827.5,5.01,0.00,24.5,23.7,00.0,33.6,26.2,15.3,0000.0,0000.84,0000.45,0000.34
2021-11-13 14:12:00,,0827.5,5.00,0.00,24.5,23.6,00.0,33.5,26.2,15.4,0000.0,0000.91,0000.48,0000.35
2021-11-13 14:13:00,,0827.6,5.00,0.00,24.5,23.6,00.0,33.5,26.2,15.4,0000.0,0000.99,0000.51,0000.35
2021-11-13 14:14:00,,0827.5,5.00,0.00,24.5,23.7,00.0,33.5,26.2,15.3,0000.0,0001.02,0000.52,0000.35
2021-11-13 14:15:00,,0827.5,5.01,0.00,24.5,23.7,00.0,33.5,26.2,15.3,0000.0,0001.03,0000.52,0000.35
2021-11-13 14:16:00,,0827.5,5.00,0.00,24.5,23.7,00.0,33.5,26.2,15.4,0000.0,0000.97,0000.51,0000.34
2021-11-13 14:17:00,,0827.5,4.99,0.00,24.5,23.7,00.0,33.5,26.2,15.4,0000.0,0000.91,0000.49,0000.34
2021-11-13 14:18:00,,0827.5,4.99,0.00,24.5,23.6,00.0,33.5,26.2,15.4,0000.0,0000.96,0000.49,0000.34
2021-11-13 14:19:00,,0827.5,5.00,0.00,24.5,23.6,00.0,33.5,26.2,15.4,0000.0,0000.99,0000.49,0000.34
2021-11-13 14:20:00,,0827.5,5.00,0.00,24.5,23.7,00.0,33.5,26.2,15.4,0000.0,0001.01,0000.50,0000.35
2021-11-13 14:21:00,,0827.6,5.00,0.00,24.5,23.7,00.0,33.5,26.2,15.3,0000.0,0001.02,0000.51,0000.35
2021-11-13 14:22:00,,0827.5,5.00,0.00,24.5,23.6,00.0,33.5,26.2,15.3,0000.0,0001.00,0000.51,0000.35
2021-11-13 14:23:00,,0827.5,4.99,0.00,24.4,23.6,00.0,33.5,26.2,15.3,0000.0,0001.00,0000.51,0000.36
2021-11-13 14:24:00,,0827.5,5.00,0.00,24.5,23.6,00.0,33.5,26.2,15.3,0000.0,0000.93,0000.48,0000.36
2021-11-13 14:25:00,,0827.5,5.00,0.00,24.5,23.6,00.0,33.5,26.3,15.2,0000.0,0000.93,0000.49,0000.37
2021-11-13 14:26:00,,0827.6,5.01,0.00,24.5,23.6,00.0,33.5,26.2,15.2,0000.0,0000.96,0000.51,0000.37
2021-11-13 14:27:00,,0827.5,5.00,0.00,24.4,23.6,00.0,33.5,26.2,15.4,0000.0,0001.14,0000.56,0000.37
2021-11-13 14:28:00,,0827.5,4.99,0.00,24.4,23.6,00.0,33.5,26.1,15.4,0000.0,0001.20,0000.58,0000.37
2021-11-13 14:29:00,,0827.5,5.00,0.00,24.4,23.6,00.0,33.5,26.1,15.4,0000.0,0001.12,0000.58,0000.37
2021-11-13 14:30:00,,0827.5,5.01,0.00,24.4,23.5,00.0,33.5,26.1,15.4,0000.0,0001.12,0000.58,0000.37
2021-11-13 14:31:00,,0827.5,4.99,0.00,24.4,23.5,00.0,33.5,26.1,15.4,0000.0,0001.12,0000.58,0000.38
2021-11-13 14:32:00,,0827.5,5.01,0.00,24.4,23.5,00.0,33.5,26.1,15.4,0000.0,0001.13,0000.59,0000.38
2021-11-13 14:33:00,,0827.4,4.98,0.00,24.4,23.6,00.0,33.5,26.1,15.3,0000.0,0001.11,0000.59,0000.38
2021-11-13 14:34:00,,0827.5,5.01,0.00,24.4,23.6,00.0,33.5,26.1,15.3,0000.0,0001.13,0000.60,0000.38
2021-11-13 14:35:00,,0827.5,4.99,0.00,24.4,23.5,00.0,33.5,26.1,15.4,0000.0,0001.18,0000.61,0000.38
2021-11-13 14:36:00,,0827.5,5.01,0.00,24.4,23.5,00.0,33.5,26.1,15.4,0000.0,0001.20,0000.62,0000.39
2021-11-13 14:37:00,,0827.5,4.99,0.00,24.4,23.6,00.0,33.5,26.1,15.4,0000.0,0001.20,0000.61,0000.39
2021-11-13 14:38:00,,0827.5,5.00,0.00,24.4,23.6,00.0,33.5,26.1,15.3,0000.0,0001.05,0000.58,0000.39
2021-11-13 14:39:00,,0827.5,5.00,0.00,24.4,23.6,00.0,33.5,26.1,15.2,0000.0,0000.93,0000.56,0000.39
2021-11-13 14:40:00,,0827.5,5.00,0.00,24.4,23.6,00.0,33.5,26.0,15.1,0000.0,0000.92,0000.56,0000.39
2021-11-13 14:41:00,,0827.5,5.01,0.00,24.4,23.6,00.0,33.4,26.0,15.1,0000.0,0000.96,0000.59,0000.39
2021-11-13 14:42:00,,0827.5,4.99,0.00,24.4,23.6,00.0,33.4,26.0,15.1,0000.0,0000.97,0000.59,0000.38
2021-11-13 14:43:00,,0827.4,4.99,0.00,24.4,23.6,00.0,33.4,26.1,15.1,0000.0,0001.02,0000.59,0000.38
2021-11-13 14:44:00,,0827.5,5.01,0.00,24.4,23.6,00.0,33.4,26.1,15.1,0000.0,0001.03,0000.57,0000.38
2021-11-13 14:45:00,,0827.5,5.00,0.00,24.4,23.6,00.0,33.4,26.1,15.2,0000.0,0001.00,0000.56,0000.38
2021-11-13 14:46:00,,0827.5,4.99,0.00,24.4,23.6,00.0,33.4,26.2,15.1,0000.0,0001.09,0000.57,0000.37
2021-11-13 14:47:00,,0827.5,5.00,0.00,24.4,23.6,00.0,33.4,26.1,15.1,0000.0,0001.15,0000.58,0000.37
2021-11-13 14:48:00,,0827.6,4.99,0.00,24.4,23.6,00.0,33.4,26.1,15.2,0000.0,0001.39,0000.62,0000.37
2021-11-13 14:49:00,,0827.7,5.01,0.00,24.4,23.6,00.0,33.4,26.0,15.2,0000.0,0001.56,0000.61,0000.37
2021-11-13 14:50:00,,0827.6,4.99,0.00,24.3,23.6,00.0,33.4,26.1,15.3,0000.0,0001.62,0000.64,0000.38
2021-11-13 14:51:00,,0827.5,5.01,0.00,24.4,23.5,00.0,33.4,26.1,15.3,0000.0,0001.61,0000.63,0000.38
2021-11-13 14:52:00,,0827.5,5.00,0.00,24.4,23.6,00.0,33.4,26.1,15.3,0000.0,0001.54,0000.60,0000.37
2021-11-13 14:53:00,,0827.5,5.01,0.00,24.4,23.6,00.0,33.4,26.1,15.1,0000.0,0001.52,0000.59,0000.38
2021-11-13 14:54:00,,0827.5,4.98,0.00,24.4,23.6,00.0,33.4,26.1,14.9,0000.0,0001.48,0000.59,0000.38
2021-11-13 14:55:00,,0827.5,5.01,0.00,24.4,23.6,00.0,33.4,26.1,14.9,0000.0,0001.42,0000.59,0000.38
2021-11-13 14:56:00,,0827.5,5.00,0.00,24.4,23.6,00.0,33.4,26.2,14.9,0000.0,0001.36,0000.57,0000.38
2021-11-13 14:57:00,,0827.5,5.00,0.00,24.4,23.6,00.0,33.4,26.2,14.9,0000.0,0001.21,0000.54,0000.38
2021-11-13 14:58:00,,0827.5,4.99,0.00,24.4,23.6,00.0,33.4,26.2,15.0,0000.0,0001.19,0000.52,0000.38
2021-11-13 14:59:00,,0827.5,4.99,0.00,24.4,23.7,00.0,33.4,26.3,14.9,0000.0,0000.99,0000.50,0000.38
